| time (UTC) | temp F | wind direction | speed MPH | gust MPH | rain 1hr in | rain 24hr in | rain mn in | humidity % | barometer mb |
| 20260903214009 | 66 | 254 | 2.0 | 4.0 | 0.00 | 0.00 | 0.00 | 59 | 1019.9 |
| 20260903213009 | 67 | 230 | 1.0 | 4.0 | 0.00 | 0.00 | 0.00 | 58 | 1019.9 |
| 20260903212009 | 67 | 230 | 1.0 | 4.0 | 0.00 | 0.00 | 0.00 | 58 | 1019.9 |
| 20260903211008 | 67 | 266 | 1.0 | 3.0 | 0.00 | 0.00 | 0.00 | 57 | 1019.9 |
| 20260903210018 | 67 | 276 | 2.0 | 3.0 | 0.00 | 0.00 | 0.00 | 56 | 1020.0 |
| 20260903205008 | 68 | 277 | 2.0 | 4.0 | 0.00 | 0.00 | 0.00 | 56 | 1020.0 |
| 20260903204009 | 68 | 277 | 2.0 | 9.0 | 0.00 | 0.00 | 0.00 | 56 | 1019.9 |
| 20260903203008 | 68 | 277 | 2.0 | 9.0 | 0.00 | 0.00 | 0.00 | 56 | 1019.9 |
| 20260903202013 | 68 | 236 | 1.0 | 4.0 | 0.00 | 0.00 | 0.00 | 56 | 1019.9 |
| 20260903201013 | 68 | 236 | 2.0 | 6.0 | 0.00 | 0.00 | 0.00 | 56 | 1019.9 |
| 20260903200013 | 68 | 228 | 2.0 | 6.0 | 0.00 | 0.00 | 0.00 | 57 | 1019.7 |
| 20260903195013 | 68 | 231 | 2.0 | 6.0 | 0.00 | 0.00 | 0.00 | 57 | 1019.5 |
| 20260903194013 | 68 | 225 | 2.0 | 4.0 | 0.00 | 0.00 | 0.00 | 57 | 1019.7 |
| 20260903193013 | 68 | 228 | 0.0 | 3.0 | 0.00 | 0.00 | 0.00 | 58 | 1019.9 |
| 20260903192013 | 69 | 220 | 0.0 | 0.0 | 0.00 | 0.00 | 0.00 | 56 | 1019.8 |
| 20260903191013 | 69 | 220 | 0.0 | 0.0 | 0.00 | 0.00 | 0.00 | 56 | 1019.8 |
| 20260903190013 | 69 | 220 | 0.0 | 2.0 | 0.00 | 0.00 | 0.00 | 56 | 1019.7 |
| 20260903185013 | 69 | 220 | 1.0 | 3.0 | 0.00 | 0.00 | 0.00 | 56 | 1019.7 |
| 20260903184013 | 69 | 219 | 0.0 | 3.0 | 0.00 | 0.00 | 0.00 | 56 | 1019.5 |
| 20260903183013 | 70 | 219 | 1.0 | 3.0 | 0.00 | 0.00 | 0.00 | 55 | 1019.5 |
| 20260903182012 | 70 | 252 | 0.0 | 3.0 | 0.00 | 0.00 | 0.00 | 55 | 1019.5 |
| 20260903181012 | 70 | 261 | 1.0 | 3.0 | 0.00 | 0.00 | 0.00 | 55 | 1019.4 |
| 20260903180012 | 71 | 262 | 1.0 | 4.0 | 0.00 | 0.00 | 0.00 | 54 | 1019.4 |
| 20260903175012 | 71 | 277 | 2.0 | 4.0 | 0.00 | 0.00 | 0.00 | 54 | 1019.4 |
| 20260903174013 | 71 | 280 | 3.0 | 7.0 | 0.00 | 0.00 | 0.00 | 54 | 1019.4 |
| 20260903173012 | 72 | 238 | 4.0 | 10.0 | 0.00 | 0.00 | 0.00 | 54 | 1019.5 |
| 20260903172012 | 72 | 260 | 5.0 | 14.0 | 0.00 | 0.00 | 0.00 | 53 | 1019.5 |
| 20260903171013 | 73 | 258 | 9.0 | 18.0 | 0.00 | 0.00 | 0.00 | 53 | 1019.6 |
| 20260903170012 | 73 | 230 | 6.0 | 18.0 | 0.00 | 0.00 | 0.00 | 53 | 1019.5 |
| 20260903165012 | 73 | 256 | 5.0 | 10.0 | 0.00 | 0.00 | 0.00 | 52 | 1019.3 |
| 20260903164012 | 73 | 222 | 5.0 | 14.0 | 0.00 | 0.00 | 0.00 | 53 | 1019.2 |
| 20260903163012 | 73 | 219 | 4.0 | 11.0 | 0.00 | 0.00 | 0.00 | 52 | 1019.3 |
| 20260903162012 | 73 | 259 | 2.0 | 8.0 | 0.00 | 0.00 | 0.00 | 53 | 1019.3 |
| 20260903161012 | 73 | 232 | 4.0 | 11.0 | 0.00 | 0.00 | 0.00 | 53 | 1019.4 |
| 20260903160012 | 73 | 228 | 3.0 | 8.0 | 0.00 | 0.00 | 0.00 | 53 | 1019.3 |
| 20260903155012 | 72 | 254 | 4.0 | 10.0 | 0.00 | 0.00 | 0.00 | 54 | 1019.3 |
| 20260903154012 | 72 | 223 | 3.0 | 8.0 | 0.00 | 0.00 | 0.00 | 54 | 1019.5 |
| 20260903153012 | 72 | 223 | 3.0 | 8.0 | 0.00 | 0.00 | 0.00 | 54 | 1019.5 |
| 20260903152012 | 73 | 252 | 3.0 | 8.0 | 0.00 | 0.00 | 0.00 | 54 | 1019.5 |
| 20260903151012 | 73 | 198 | 4.0 | 9.0 | 0.00 | 0.00 | 0.00 | 52 | 1019.4 |
| 20260903150012 | 73 | 211 | 2.0 | 6.0 | 0.00 | 0.00 | 0.00 | 53 | 1019.5 |
| 20260903145011 | 72 | 231 | 2.0 | 6.0 | 0.00 | 0.00 | 0.00 | 54 | 1019.7 |
| 20260903144011 | 72 | 203 | 3.0 | 8.0 | 0.00 | 0.00 | 0.00 | 54 | 1019.7 |
| 20260903143012 | 72 | 248 | 3.0 | 8.0 | 0.00 | 0.00 | 0.00 | 56 | 1019.9 |
| 20260903142011 | 72 | 173 | 4.0 | 12.0 | 0.00 | 0.00 | 0.00 | 53 | 1019.9 |
| 20260903141011 | 73 | 209 | 5.0 | 13.0 | 0.00 | 0.00 | 0.00 | 53 | 1020.0 |
| 20260903140011 | 73 | 271 | 5.0 | 11.0 | 0.00 | 0.00 | 0.00 | 54 | 1019.9 |
| 20260903135011 | 73 | 252 | 5.0 | 12.0 | 0.00 | 0.00 | 0.00 | 53 | 1020.1 |
| 20260903134011 | 73 | 269 | 5.0 | 12.0 | 0.00 | 0.00 | 0.00 | 53 | 1020.3 |
| 20260903133011 | 73 | 257 | 6.0 | 13.0 | 0.00 | 0.00 | 0.00 | 51 | 1020.3 |
| 20260903132011 | 74 | 283 | 8.0 | 20.0 | 0.00 | 0.00 | 0.00 | 53 | 1020.3 |
| 20260903131011 | 74 | 233 | 6.0 | 13.0 | 0.00 | 0.00 | 0.00 | 51 | 1020.5 |
| 20260903130011 | 74 | 281 | 6.0 | 13.0 | 0.00 | 0.00 | 0.00 | 52 | 1020.5 |
| 20260903125011 | 74 | 238 | 4.0 | 9.0 | 0.00 | 0.00 | 0.00 | 52 | 1020.3 |
| 20260903124011 | 74 | 274 | 6.0 | 17.0 | 0.00 | 0.00 | 0.00 | 52 | 1020.2 |
| 20260903123011 | 74 | 292 | 6.0 | 14.0 | 0.00 | 0.00 | 0.00 | 52 | 1020.2 |
| 20260903122011 | 74 | 242 | 4.0 | 13.0 | 0.00 | 0.00 | 0.00 | 52 | 1020.3 |
| 20260903121011 | 74 | 227 | 5.0 | 18.0 | 0.00 | 0.00 | 0.00 | 51 | 1020.5 |
| 20260903120011 | 74 | 236 | 5.0 | 13.0 | 0.00 | 0.00 | 0.00 | 52 | 1020.5 |
| 20260903115011 | 74 | 219 | 5.0 | 12.0 | 0.00 | 0.00 | 0.00 | 53 | 1020.6 |
| 20260903114011 | 74 | 238 | 6.0 | 14.0 | 0.00 | 0.00 | 0.00 | 52 | 1020.8 |
| 20260903113011 | 75 | 280 | 6.0 | 12.0 | 0.00 | 0.00 | 0.00 | 51 | 1020.8 |
| 20260903112011 | 75 | 240 | 7.0 | 13.0 | 0.00 | 0.00 | 0.00 | 50 | 1020.9 |
| 20260903111011 | 74 | 269 | 2.0 | 10.0 | 0.00 | 0.00 | 0.00 | 52 | 1020.9 |
| 20260903110011 | 74 | 245 | 4.0 | 11.0 | 0.00 | 0.00 | 0.00 | 50 | 1021.0 |
| 20260903105011 | 73 | 188 | 5.0 | 13.0 | 0.00 | 0.00 | 0.00 | 54 | 1021.2 |
| 20260903104011 | 72 | 211 | 4.0 | 13.0 | 0.00 | 0.00 | 0.00 | 53 | 1021.3 |
| 20260903103011 | 71 | 192 | 2.0 | 6.0 | 0.00 | 0.00 | 0.00 | 55 | 1021.4 |
| 20260903102011 | 70 | 168 | 4.0 | 10.0 | 0.00 | 0.00 | 0.00 | 53 | 1021.4 |
| 20260903101011 | 70 | 212 | 4.0 | 9.0 | 0.00 | 0.00 | 0.00 | 52 | 1021.7 |
| 20260903100011 | 70 | 245 | 5.0 | 12.0 | 0.00 | 0.00 | 0.00 | 55 | 1021.8 |
| 20260903095011 | 70 | 254 | 6.0 | 14.0 | 0.00 | 0.00 | 0.00 | 52 | 1021.7 |
| 20260903094011 | 70 | 286 | 5.0 | 11.0 | 0.00 | 0.00 | 0.00 | 52 | 1021.7 |
| 20260903093009 | 70 | 245 | 6.0 | 12.0 | 0.00 | 0.00 | 0.00 | 55 | 1021.4 |
| 20260903092019 | 70 | 245 | 6.0 | 12.0 | 0.00 | 0.00 | 0.00 | 55 | 1021.4 |
| 20260903091011 | 69 | 264 | 7.0 | 12.0 | 0.00 | 0.00 | 0.00 | 56 | 1021.5 |
| 20260903090010 | 69 | 282 | 6.0 | 16.0 | 0.00 | 0.00 | 0.00 | 59 | 1021.4 |
| 20260903085010 | 69 | 244 | 7.0 | 14.0 | 0.00 | 0.00 | 0.00 | 56 | 1021.5 |
| 20260903084009 | 68 | 216 | 4.0 | 9.0 | 0.00 | 0.00 | 0.00 | 59 | 1021.6 |
| 20260903083009 | 68 | 262 | 3.0 | 9.0 | 0.00 | 0.00 | 0.00 | 61 | 1021.6 |
| 20260903082009 | 67 | 251 | 4.0 | 10.0 | 0.00 | 0.00 | 0.00 | 61 | 1021.5 |
| 20260903081009 | 67 | 223 | 3.0 | 8.0 | 0.00 | 0.00 | 0.00 | 65 | 1021.4 |
| 20260903080009 | 66 | 250 | 3.0 | 9.0 | 0.00 | 0.00 | 0.00 | 63 | 1021.2 |
| 20260903075009 | 66 | 250 | 3.0 | 9.0 | 0.00 | 0.00 | 0.00 | 63 | 1021.2 |
| 20260903074009 | 65 | 236 | 3.0 | 10.0 | 0.00 | 0.00 | 0.00 | 66 | 1021.5 |
| 20260903073009 | 63 | 234 | 3.0 | 10.0 | 0.00 | 0.00 | 0.00 | 69 | 1021.6 |
| 20260903072009 | 62 | 267 | 4.0 | 8.0 | 0.00 | 0.00 | 0.00 | 71 | 1021.8 |
| 20260903071009 | 60 | 273 | 1.0 | 7.0 | 0.00 | 0.00 | 0.00 | 75 | 1021.8 |
| 20260903070009 | 58 | 303 | 0.0 | 0.0 | 0.00 | 0.00 | 0.00 | 78 | 1021.7 |
| 20260903065010 | 57 | 303 | 0.0 | 2.0 | 0.00 | 0.00 | 0.00 | 81 | 1021.7 |
| 20260903064009 | 56 | 303 | 0.0 | 1.0 | 0.00 | 0.00 | 0.00 | 82 | 1021.7 |
| 20260903063009 | 56 | 303 | 0.0 | 2.0 | 0.00 | 0.00 | 0.00 | 85 | 1021.8 |
| 20260903062009 | 55 | 303 | 0.0 | 0.0 | 0.00 | 0.00 | 0.00 | 90 | 1021.7 |
| 20260903061010 | 54 | 302 | 0.0 | 0.0 | 0.00 | 0.00 | 0.00 | 91 | 1021.8 |
| 20260903060009 | 54 | 302 | 0.0 | 0.0 | 0.00 | 0.00 | 0.00 | 91 | 1021.9 |
| 20260903055009 | 53 | 302 | 0.0 | 0.0 | 0.00 | 0.00 | 0.00 | 91 | 1021.8 |
| 20260903054009 | 53 | 302 | 1.0 | 3.0 | 0.00 | 0.00 | 0.00 | 91 | 1021.8 |
| 20260903053009 | 52 | 309 | 1.0 | 3.0 | 0.00 | 0.00 | 0.00 | 91 | 1021.5 |
| 20260903052009 | 51 | 313 | 0.0 | 2.0 | 0.00 | 0.00 | 0.00 | 89 | 1021.4 |
| 20260903051008 | 51 | 313 | 0.0 | 0.0 | 0.00 | 0.00 | 0.00 | 88 | 1021.3 |
| 20260903050009 | 51 | 313 | 0.0 | 0.0 | 0.00 | 0.00 | 0.00 | 87 | 1021.2 |
| 20260903045009 | 52 | 313 | 0.0 | 0.0 | 0.00 | 0.00 | 0.00 | 86 | 1021.1 |
| 20260903044009 | 52 | 313 | 0.0 | 0.0 | 0.00 | 0.00 | 0.00 | 85 | 1021.1 |
| 20260903043009 | 52 | 313 | 0.0 | 0.0 | 0.00 | 0.00 | 0.00 | 85 | 1021.3 |
| 20260903042014 | 52 | 313 | 0.0 | 0.0 | 0.00 | 0.00 | 0.00 | 84 | 1021.3 |
| 20260903041008 | 53 | 313 | 0.0 | 0.0 | 0.00 | 0.00 | 0.00 | 84 | 1021.3 |
| 20260903040009 | 53 | 313 | 0.0 | 0.0 | 0.00 | 0.00 | 0.00 | 84 | 1021.3 |
| 20260903035008 | 53 | 313 | 0.0 | 0.0 | 0.00 | 0.00 | 0.00 | 84 | 1021.3 |
| 20260903034008 | 53 | 313 | 0.0 | 0.0 | 0.00 | 0.00 | 0.00 | 84 | 1021.4 |
| 20260903033008 | 54 | 313 | 0.0 | 0.0 | 0.00 | 0.00 | 0.00 | 83 | 1021.3 |
| 20260903032008 | 54 | 313 | 0.0 | 0.0 | 0.00 | 0.00 | 0.00 | 83 | 1021.3 |
| 20260903031008 | 54 | 313 | 0.0 | 0.0 | 0.00 | 0.00 | 0.00 | 82 | 1021.3 |
| 20260903030008 | 54 | 313 | 1.0 | 2.0 | 0.00 | 0.00 | 0.00 | 82 | 1021.3 |
| 20260903025008 | 55 | 313 | 2.0 | 3.0 | 0.00 | 0.00 | 0.00 | 80 | 1021.4 |
| 20260903024008 | 55 | 313 | 2.0 | 3.0 | 0.00 | 0.00 | 0.00 | 80 | 1021.4 |
| 20260903023021 | 55 | 313 | 2.0 | 3.0 | 0.00 | 0.00 | 0.00 | 79 | 1021.4 |
| 20260903022012 | 55 | 313 | 1.0 | 3.0 | 0.00 | 0.00 | 0.00 | 78 | 1021.3 |
| 20260903021012 | 56 | 313 | 0.0 | 0.0 | 0.00 | 0.00 | 0.00 | 77 | 1021.1 |
| 20260903020012 | 56 | 313 | 0.0 | 0.0 | 0.00 | 0.00 | 0.00 | 76 | 1021.2 |
| 20260903015012 | 56 | 313 | 0.0 | 0.0 | 0.00 | 0.00 | 0.00 | 76 | 1021.2 |
| 20260903014012 | 57 | 313 | 0.0 | 0.0 | 0.00 | 0.00 | 0.00 | 74 | 1021.2 |
| 20260903013012 | 57 | 313 | 0.0 | 2.0 | 0.00 | 0.00 | 0.00 | 74 | 1021.3 |
| 20260903012012 | 57 | 313 | 0.0 | 2.0 | 0.00 | 0.00 | 0.00 | 74 | 1021.4 |
| 20260903011012 | 58 | 313 | 1.0 | 2.0 | 0.00 | 0.00 | 0.00 | 73 | 1021.3 |
| 20260903010012 | 58 | 313 | 1.0 | 2.0 | 0.00 | 0.00 | 0.00 | 74 | 1021.2 |
| 20260903005012 | 58 | 313 | 0.0 | 2.0 | 0.00 | 0.00 | 0.00 | 73 | 1021.2 |
| 20260903004012 | 58 | 313 | 1.0 | 3.0 | 0.00 | 0.00 | 0.00 | 72 | 1021.1 |
| 20260903003012 | 58 | 313 | 1.0 | 3.0 | 0.00 | 0.00 | 0.00 | 72 | 1021.1 |
| 20260903002011 | 59 | 313 | 2.0 | 3.0 | 0.00 | 0.00 | 0.00 | 72 | 1021.1 |
| 20260903001011 | 59 | 313 | 1.0 | 3.0 | 0.00 | 0.00 | 0.00 | 72 | 1021.1 |
| 20260903000011 | 59 | 313 | 1.0 | 4.0 | 0.00 | 0.00 | 0.00 | 72 | 1021.0 |
| 20260902235011 | 60 | 313 | 0.0 | 0.0 | 0.00 | 0.00 | 0.00 | 71 | 1021.0 |
| 20260902234011 | 60 | 313 | 1.0 | 2.0 | 0.00 | 0.00 | 0.00 | 71 | 1021.0 |
| 20260902233012 | 60 | 313 | 1.0 | 3.0 | 0.00 | 0.00 | 0.00 | 71 | 1021.2 |
| 20260902232012 | 60 | 313 | 1.0 | 4.0 | 0.00 | 0.00 | 0.00 | 71 | 1021.1 |
| 20260902231011 | 61 | 325 | 1.0 | 3.0 | 0.00 | 0.00 | 0.00 | 70 | 1021.0 |
| 20260902230011 | 61 | 325 | 0.0 | 3.0 | 0.00 | 0.00 | 0.00 | 70 | 1021.1 |
| 20260902225011 | 61 | 325 | 0.0 | 0.0 | 0.00 | 0.00 | 0.00 | 70 | 1021.1 |
| 20260902224011 | 61 | 325 | 0.0 | 0.0 | 0.00 | 0.00 | 0.00 | 70 | 1021.1 |
| 20260902223011 | 62 | 325 | 0.0 | 0.0 | 0.00 | 0.00 | 0.00 | 69 | 1021.1 |
| 20260902222011 | 62 | 325 | 0.0 | 0.0 | 0.00 | 0.00 | 0.00 | 70 | 1021.2 |
| 20260902221011 | 62 | 325 | 0.0 | 0.0 | 0.00 | 0.00 | 0.00 | 69 | 1021.1 |
| 20260902220011 | 62 | 325 | 0.0 | 0.0 | 0.00 | 0.00 | 0.00 | 69 | 1021.0 |
| 20260902215011 | 62 | 325 | 0.0 | 0.0 | 0.00 | 0.00 | 0.00 | 69 | 1021.0 |